Content
SEND FEEDBACK

Daily
Averages
Monthly
Summary
United Kingdom

LONDON, ENGLAND


Home > Europe > United Kingdom > England
Elevation: 61 meters     Latitude: 51 09N     Longitude: 000 11W

WEATHER
 
SELECT A DAY
Number of Records: 293,981;   Date Range: 7/1/96 - 9/1/14
 
SHARE

PRINT THIS DATA

[ ← Previous Day ]
WEATHER ALMANAC - 3 MAY, 2013
[ Next Day → ]
[ °F ]   °C
Weather ElementAverageHighLow
Temperature12 °C19 °C (2:20 pm)2 °C (4:50 am)
Dewpoint3.2 °C6 °C (5:20 pm)0 °C (4:50 am)
Humidity58.2 %87 % (3:50 am)30 % (3:20 pm)
Barometer1019.3 hPa1022 hPa (12:50 am)1017.3 hPa (6:50 pm)
Wind Speed10 km/h22.2 km/h (6:20 pm)
Weather ElementAverage
Visibility10 km
Wind DirectionS (178.3 °)

Weather ElementTotal
Precipitation---
Heating Degree Days7.8 (Base 18.3)
Growing Degree Days0.5 (Base 10)
Averaged from 46 records on 3 May, 2013
WEATHER CONDITIONS BREAKOUT
WIND DIRECTION BREAKOUT
WEATHER BY HOUR - 3 MAY, 2013
[ °F ]   °C
Local TimeTemperatureDewpointHumidityBarometerVisibilityWind DirectionWind SpeedGust SpeedPrecipitationEventsConditions
12:50 AM5 °C1 °C76 %1022 hPaCalmClear
1:20 AM5 °C1 °C76 %1022 hPaVariable3.7 km/hClear
1:50 AM5 °C1 °C76 %1021 hPaCalmClear
2:20 AM4 °C1 °C81 %1021 hPaCalmClear
2:50 AM4 °C1 °C81 %1021 hPaCalmClear
3:50 AM3 °C1 °C87 %1021 hPaSouth (180°)3.7 km/hClear
4:20 AM3 °C1 °C87 %1021 hPaCalmClear
4:50 AM2 °C0 °C87 %1020 hPaWest (270°)5.6 km/hClear
5:20 AM2 °C0 °C87 %1020 hPaCalmClear
5:50 AM3 °C0 °C81 %1020 hPaCalmClear
6:20 AM3 °C0 °C81 %1020 hPaCalmClear
6:50 AM4 °C1 °C81 %1021 hPaVariable3.7 km/hClear
7:20 AM6 °C2 °C76 %1021 hPaCalmClear
7:50 AM8 °C2 °C66 %1021 hPaVariable3.7 km/hClear
8:20 AM10 °C3 °C62 %1021 hPaVariable3.7 km/hClear
8:50 AM12 °C3 °C54 %1021 hPaVariable5.6 km/hClear
9:20 AM13 °C2 °C47 %1021 hPaWest (270°)9.3 km/hClear
9:50 AM14 °C2 °C44 %1020 hPaWest (280°)7.4 km/hClear
10:20 AM15 °C4 °C48 %1020 hPaWNW (290°)9.3 km/hClear
10:50 AM16 °C4 °C45 %1020 hPaWNW (300°)9.3 km/hClear
11:20 AM16 °C4 °C45 %1020 hPaVariable5.6 km/hClear
11:50 AM17 °C3 °C39 %1020 hPaWest (270°)11.1 km/hClear
12:20 PM17 °C3 °C39 %1020 hPaWSW (250°)13 km/hClear
12:50 PM18 °C3 °C37 %1020 hPaSW (230°)13 km/hClear
1:20 PM18 °C3 °C37 %1019 hPaWest (260°)9.3 km/hClear
1:50 PM18 °C4 °C40 %1019 hPaWNW (290°)13 km/hClear
2:20 PM19 °C4 °C37 %1019 hPaSW (230°)13 km/hClear
2:50 PM19 °C2 °C32 %1019 hPaSW (230°)14.8 km/hClear
3:20 PM19 °C1 °C30 %1017.9 hPaWest (260°)13 km/hClear
3:50 PM19 °C1 °C30 %1017.9 hPaWSW (250°)16.7 km/hClear
4:20 PM19 °C4 °C37 %1017.9 hPaWest (260°)14.8 km/hClear
4:50 PM19 °C4 °C37 %1017.9 hPaWSW (250°)16.7 km/hClear
5:20 PM19 °C6 °C43 %1017.9 hPaWNW (290°)18.5 km/hClear
5:50 PM18 °C6 °C45 %1017.9 hPaWNW (290°)18.5 km/hClear
6:20 PM17 °C6 °C48 %1017.9 hPa10 kmWest (270°)22.2 km/hPartly Cloudy
6:50 PM17 °C6 °C48 %1017.3 hPaWest (280°)20.4 km/hClear
7:20 PM16 °C6 °C52 %1017.3 hPaWest (280°)18.5 km/hClear
7:50 PM15 °C6 °C55 %1017.9 hPaWest (270°)20.4 km/hClear
8:20 PM14 °C6 °C59 %1017.9 hPaWest (270°)16.7 km/hClear
8:50 PM13 °C6 °C63 %1017.9 hPaWest (270°)16.7 km/hClear
9:20 PM11 °C5 °C67 %1017.9 hPaWest (270°)13 km/hClear
9:50 PM12 °C5 °C62 %1019 hPa10 kmWSW (240°)11.1 km/hPartly Cloudy
10:20 PM12 °C6 °C67 %1019 hPa10 kmWest (270°)16.7 km/hMostly Cloudy
10:50 PM11 °C5 °C67 %1019 hPa10 kmWest (280°)16.7 km/hScattered Clouds
11:20 PM11 °C5 °C67 %1017.9 hPaWest (280°)13 km/hClear
11:50 PM10 °C5 °C71 %1017.9 hPaWest (270°)13 km/hClear
Hourly data recorded from EGKK, located 0 kilometers away from London, England







STORIES FROM OUR PARTNERS